Regional Weather Roundup
Issued by NWS Grand Forks, ND

Home | Current Version | Previous Version | Graphics & Text | Print | Product List | Glossary On
Versions: 1 2 3 4 5 6 7 8 9 10 11 12 13 14 15 16 17 18 19 20 21 22 23 24 25 26 27 28 29 30 31 32 33 34 35 36 37 38 39 40 41 42 43 44 45 46 47 48 49 50
000
ASUS43 KFGF 300010
RWRFGF
PRAIRIE TO PINES  WEATHER ROUNDUP
NATIONAL WEATHER SERVICE EASTERN NORTH DAKOTA/GRAND FORKS ND
700 PM CDT SAT AUG 29 2015

 **SATELLITE DATA USED TO AUGMENT SKY COVER AT AUTOMATED STATIONS**
 *****  WEATHER ACROSS EASTERN NORTH DAKOTA  *****

CITY           SKY/WX    TMP DP  RH WIND       PRES   REMARKS
GRAND FORKS    PTSUNNY   78  69  73 S12       29.82F
6HR MIN TEMP:  75; 6HR MAX TEMP:  81;

GRAND FRKS AFB PTSUNNY   78  69  72 SW8       29.83S
GRAND FRKS NWS   N/A     77 N/A N/A S13         N/A
DEVILS LAKE    MOSUNNY   81  64  57 S10       29.81F
6HR MIN TEMP:  75; 6HR MAX TEMP:  82;

FARGO          PTSUNNY   81  67  62 S10       29.86F
WAHPETON ARPT  PTCLDY    75  63  64 S12       29.91S
$$

 ***** WEATHER ACROSS CENTRAL AND WESTERN NORTH DAKOTA  *****

CITY           SKY/WX    TMP DP  RH WIND       PRES   REMARKS
BISMARCK       MOSUNNY   86  62  44 SE8       29.83F HAZE
6HR MIN TEMP:  84; 6HR MAX TEMP:  93;

MINOT          MOSUNNY   86  53  32 S6        29.78F HAZE
6HR MIN TEMP:  85; 6HR MAX TEMP:  94;

JAMESTOWN      MOSUNNY   81  72  74 S7        29.85F
6HR MIN TEMP:  77; 6HR MAX TEMP:  84;

MINOT AFB      MOSUNNY   89  54  29 S6        29.76F
GARRISON         N/A     84  57  39 S7        29.81F
WILLISTON      MOSUNNY   92  47  21 CALM      29.78F HAZE
6HR MIN TEMP:  87; 6HR MAX TEMP:  94;

DICKINSON      MOSUNNY   92  42  17 SW8       29.82F
6HR MIN TEMP:  92; 6HR MAX TEMP:  99;

HETTINGER      SUNNY     93  44  18 S9        29.88F
6HR MIN TEMP:  91; 6HR MAX TEMP:  97;

$$

 *****  OTHER AIRPORT OBSERVATIONS IN OUR AREA  *****

CITY           SKY/WX    TMP DP  RH WIND       PRES   REMARKS
WALHALLA       FAIR      79  73  83 MISG      29.77F
GRAFTON AIRPOR FAIR      79  72  78 S12       29.82S
VALLEY CITY AR FAIR      79  73  83 S12       29.87F
CANDO          NOT AVBL
CAVALIER APRT  FAIR      81  72  74 S10       29.78F
GWINNER        FAIR      79  73  83 S7        29.90S
SHEYENNE NWR     N/A     81  70  70 S6        29.95S
ROLLA            N/A     81  59  47 SW10      29.82S
 ***** THE ABOVE OBSERVATIONS ARE NON NWS ARE NOT QUALITY
       CONTROLLED AND MAY MIS-REPORT RAIN FOR SNOW...
$$

  *****  WEATHER ACROSS NORTHERN MINNESOTA  *****

CITY           SKY/WX    TMP DP  RH WIND       PRES   REMARKS
FLAG ISLAND    CLOUDY    68  66  94 S9        29.85F
WARROAD        CLOUDY    72  68  88 CALM      29.86F
ROSEAU         CLOUDY    75  70  83 S5        29.85F
HALLOCK        MOSUNNY   79  70  73 S10       29.80F
THF RVR FALLS  CLOUDY   N/A N/A N/A S10       29.86F
BAUDETTE       CLOUDY    72  67  84 SE7       29.87F
6HR MIN TEMP:  70; 6HR MAX TEMP:  74;

WASKISH        MOCLDY    73  66  78 SE5       29.90S
CROOKSTON      PTSUNNY   79  70  73 S13       29.85F
STEPHEN NDAWN    N/A     77  70  78 S8          N/A
GREENBUSH NDAW   N/A     77  70  78 S5          N/A
$$
  *****  WEATHER ACROSS CENTRAL AND WEST MINNESOTA  *****

CITY           SKY/WX    TMP DP  RH WIND       PRES   REMARKS
FOSSTON        PTSUNNY   73  64  73 S8        29.90S
BEMIDJI        PTSUNNY   73  66  79 S8        29.91F
PARK RAPIDS    MOSUNNY   73  62  68 S14       29.94F
6HR MIN TEMP:  73; 6HR MAX TEMP:  79;

ELBOW LAKE     FAIR      71  64  80 SE9       29.94F
6HR MIN TEMP:  71; 6HR MAX TEMP:  76;

WADENA         PTSUNNY   70  63  78 S8        29.95F
DETROIT LAKES  MOSUNNY   73  64  73 S13       29.93F
MOORHEAD       PTSUNNY   79  68  69 S10       29.89R
FERGUS FALLS   MOSUNNY   73  64  73 S13       29.92F
MORRIS MN      PTSUNNY   73  66  78 SE9       29.94F
STAPLES        PTSUNNY   70  61  73 S8        29.97S
$$
  *****  WEATHER ELSEWHERE ACROSS MINNESOTA  *****

CITY           SKY/WX    TMP DP  RH WIND       PRES   REMARKS
DULUTH         MOCLDY    71  63  75 SW8       29.99F
6HR MIN TEMP:  71; 6HR MAX TEMP:  74;

INTRNTL FALLS  MOCLDY    69  65  86 SE7       29.91F
6HR MIN TEMP:  69; 6HR MAX TEMP:  73;

ELY            CLOUDY    68  63  83 SW5       29.98R
CLOQUET        PTCLDY    72  61  68 S7        29.99S
WHEATON        MOSUNNY   72  64  78 SE12      29.93F
BRAINERD       MOCLDY    70  62  76 S7        29.98F
6HR MIN TEMP:  70; 6HR MAX TEMP:  75;

HIBBING        MOCLDY    71  63  75 S6        29.97F
6HR MIN TEMP:  68; 6HR MAX TEMP:  74;

ALEXANDRIA     PTSUNNY   71  62  73 S12       29.98F
6HR MIN TEMP:  70; 6HR MAX TEMP:  75;

SAINT CLOUD    MOCLDY    69  63  81 S6        30.00S
6HR MIN TEMP:  69; 6HR MAX TEMP:  74;

MINNEAPOLIS    MOCLDY    73  62  68 S5        30.02S
6HR MIN TEMP:  67; 6HR MAX TEMP:  74;

$$

  *****  WEATHER ACROSS SOUTH DAKOTA  *****

CITY           SKY/WX    TMP DP  RH WIND       PRES   REMARKS
SIOUX FALLS    PTSUNNY   72  64  76 S10       29.99F
6HR MIN TEMP:  68; 6HR MAX TEMP:  75;

BROOKINGS      SUNNY     73  63  68 S10       30.00S
WATERTOWN      SUNNY     74  67  78 S9        29.95F
6HR MIN TEMP:  74; 6HR MAX TEMP:  79;

HURON          SUNNY     79  70  74 S10       29.92S
6HR MIN TEMP:  78; 6HR MAX TEMP:  83;

SISSETON         N/A     78  68  71 S6        29.90S
ABERDEEN       SUNNY     81  73  76 S10       29.89F
6HR MIN TEMP:  78; 6HR MAX TEMP:  84;

MITCHELL       SUNNY     78  69  73 S10       29.95F
PIERRE         SUNNY     87  65  47 SE10      29.87F
6HR MIN TEMP:  83; 6HR MAX TEMP:  94;

MOBRIDGE       SUNNY     86  66  51 SE8       29.85F
RAPID CITY     SUNNY     86  55  34 SE9       29.93F
6HR MIN TEMP:  86; 6HR MAX TEMP:  93;

$$

  *****  SOME WEATHER IN NEARBY STATES *****

CITY           SKY/WX    TMP DP  RH WIND       PRES   REMARKS
GLASGOW MT     HAZE      90  41  18 E15       29.73F VSB 1/2
6HR MIN TEMP:  78; 6HR MAX TEMP:  92;

GREAT FALLS MT LGT RAIN  74  54  49 W12       29.74R
6HR MIN TEMP:  70; 6HR MAX TEMP:  92; 6HR PCP:  0.01;

CHEYENNE WY    SUNNY     83  38  20 S9        30.18F
6HR MIN TEMP:  82; 6HR MAX TEMP:  85;

SCOTTSBLUFF NE SUNNY     88  42  20 SE13      30.02F HAZE
6HR MIN TEMP:  83; 6HR MAX TEMP:  94;

OMAHA NE       CLOUDY    72  64  76 N3        30.03S
6HR MIN TEMP:  65; 6HR MAX TEMP:  73;

DES MOINES IA  CLOUDY    71  64  78 N6        30.02S
6HR MIN TEMP:  71; 6HR MAX TEMP:  73;

DAVENPORT IA   CLOUDY    70  67  90 NE3       30.02R
6HR MIN TEMP:  70; 6HR MAX TEMP:  74;

CHICAGO IL     LGT RAIN  68  66  93 N3        30.00S FOG
6HR MIN TEMP:  67; 6HR MAX TEMP:  70; 6HR PCP:  0.08;

EAU CLAIRE WI  MOCLDY    71  61  70 CALM      30.03F
6HR MIN TEMP:  64; 6HR MAX TEMP:  72;

LA CROSSE WI   CLOUDY    70  61  73 E3        30.03F
6HR MIN TEMP:  68; 6HR MAX TEMP:  75;

$$

  *****  SOME NATIONAL WEATHER *****

CITY           SKY/WX    TMP DP  RH WIND       PRES   REMARKS
LA GUARDIA NY  PTCLDY    77  59  53 S14G21    30.10S
6HR MIN TEMP:  77; 6HR MAX TEMP:  85;

RALEIGH NC     CLOUDY    79  60  52 CALM      30.13R
6HR MIN TEMP:  79; 6HR MAX TEMP:  86;

ATLANTA GA     CLOUDY    78  65  63 E5        30.13R
6HR MIN TEMP:  78; 6HR MAX TEMP:  81; 6HR PCP: TRACE;

NEW ORLEANS LA MOCLDY    85  66  53 S8        29.99R
6HR MIN TEMP:  85; 6HR MAX TEMP:  90;

OKLAHOMA CITY  MOSUNNY   88  61  40 N7        29.95F
6HR MIN TEMP:  87; 6HR MAX TEMP:  91;

ALBUQUERQUE NM PTSUNNY   84  45  25 E17       30.18F
6HR MIN TEMP:  78; 6HR MAX TEMP:  89;

SALT LAKE CITY PTSUNNY   95  39  14 S15       29.90F HX  91
6HR MIN TEMP:  92; 6HR MAX TEMP:  96;

LOS ANGELES CA MOSUNNY   80  67  64 W15       29.84F


USA.gov is the U.S. government's official web portal to all federal, state and local government web resources and services.